MAKIL Weather Reports


time (UTC)temp
C
wind
direction
speed
KPH
gust
KPH
rain 1hr
cm
rain 24hr
cm
rain mn
cm
humidity
%
barometer
mb
20260503224710 5 256 19.3 20.9 0.00 0.00 0.00 93
20260503222710 5 262 20.9 24.1 0.00 0.00 0.00 92
20260503220710 5 271 20.9 24.1 0.00 0.00 0.00 92
20260503214709 5 261 22.5 24.1 0.00 0.00 0.00 92
20260503212710 5 257 22.5 25.7 0.00 0.00 0.00 92
20260503210710 6 249 22.5 25.7 0.00 0.00 0.00 91
20260503204710 6 252 20.9 22.5 0.00 0.00 0.00 91
20260503202709 6 259 20.9 22.5 0.00 0.00 0.00 91
20260503200709 6 257 20.9 22.5 0.00 0.00 0.00 90
20260503194709 6 262 19.3 20.9 0.00 0.00 0.00 90
20260503192709 6 251 20.9 24.1 0.00 0.00 0.00 89
20260503190709 6 258 22.5 27.4 0.00 0.00 0.00 88
20260503184709 6 272 24.1 25.7 0.00 0.00 0.00 89
20260503182709 6 267 25.7 27.4 0.00 0.00 0.00 88
20260503180709 6 260 24.1 25.7 0.00 0.00 0.00 89
20260503174709 6 249 24.1 27.4 0.00 0.00 0.00 88
20260503172715 6 246 27.4 30.6 0.00 0.00 0.00 87
20260503170709 6 247 25.7 30.6 0.00 0.00 0.00 88
20260503150708 7 231 24.1 29.0 0.00 0.00 0.00 87
20260503130708 8 234 22.5 29.0 0.00 0.00 0.00 81
20260503110707 8 234 20.9 30.6 0.00 0.00 0.00 76
20260503080707 7 267 20.9 22.5 0.00 0.00 0.00 84
20260503072707 6 280 14.5 19.3 0.00 0.00 0.00 90
20260503070707 6 288 19.3 22.5 0.00 0.00 0.00 94
20260503054707 5 257 16.1 20.9 0.00 0.00 0.00 93
20260503052707 5 253 22.5 24.1 0.00 0.00 0.00 91
20260503050706 5 266 20.9 22.5 0.00 0.00 0.00 91
20260503044706 5 262 19.3 20.9 0.00 0.00 0.00 93
20260503042706 5 254 24.1 29.0 0.00 0.00 0.00 93
20260503040706 5 250 25.7 29.0 0.00 0.00 0.00 93
20260503034706 5 247 24.1 29.0 0.00 0.00 0.00 92
20260503032706 5 237 24.1 30.6 0.00 0.00 0.00 93
20260503030706 5 244 20.9 27.4 0.00 0.00 0.00 93
20260503024706 5 245 24.1 27.4 0.00 0.00 0.00 93
20260503022706 5 261 24.1 29.0 0.00 0.00 0.00 92
20260503020706 5 226 30.6 35.4 0.00 0.00 0.00 90
20260503014706 5 226 27.4 33.8 0.00 0.00 0.00 90
20260503012706 5 224 27.4 32.2 0.00 0.00 0.00 90
20260503010706 5 224 27.4 35.4 0.00 0.00 0.00 90
20260503002706 6 224 30.6 35.4 0.00 0.00 0.00 89
20260503000706 6 226 27.4 33.8 0.00 0.00 0.00 88
20260502234705 6 227 27.4 32.2 0.00 0.00 0.00 88
20260502232706 6 227 29.0 32.2 0.00 0.00 0.00 87
20260502230705 6 232 22.5 29.0 0.00 0.00 0.00 87